contact:dominique.lefevre@mio.osupytheas.fr, maurice.libes@osupytheas.fr, didier.mallarino@osupytheas.fr
Project:EMSO http://www.emso-fr.org/EMSO-France
Depth: 2436.0 m
Title:EMSO Ligure Ouest : Data MII capteur MICROCAT
DateTime_Computer,Latitude,Longitude,Temperature,Conductivity,Pressure,DateTime_Instrument
DateTime_Computer,Latitude,Longitude,degC,S m-1,dbar,DateTime_Instrument
2020-08-30T00:02:49Z,42.805,6.029,13.2991,4.60039,2470.087,2020-8-30T02:03:40Z
2020-08-30T00:05:53Z,42.805,6.029,13.2983,4.60022,2470.087,2020-8-30T02:06:43Z
2020-08-30T00:08:56Z,42.805,6.029,13.2978,4.60070,2470.063,2020-8-30T02:09:46Z
2020-08-30T00:11:59Z,42.805,6.029,13.2986,4.60038,2470.087,2020-8-30T02:12:50Z
2020-08-30T00:15:03Z,42.805,6.029,13.2986,4.60017,2470.087,2020-8-30T02:15:53Z
2020-08-30T00:18:06Z,42.805,6.029,13.2985,4.60016,2470.087,2020-8-30T02:18:56Z
2020-08-30T00:21:09Z,42.805,6.029,13.3009,4.60039,2470.087,2020-8-30T02:21:59Z
2020-08-30T00:24:12Z,42.805,6.029,13.2982,4.60021,2470.087,2020-8-30T02:25:03Z
2020-08-30T00:27:15Z,42.805,6.029,13.2984,4.59998,2470.063,2020-8-30T02:28:06Z
2020-08-30T00:30:19Z,42.805,6.029,13.2981,4.60019,2470.087,2020-8-30T02:31:09Z
2020-08-30T00:33:22Z,42.805,6.029,13.3003,4.60023,2470.087,2020-8-30T02:34:12Z
2020-08-30T00:36:25Z,42.805,6.029,13.2982,4.60019,2470.049,2020-8-30T02:37:15Z
2020-08-30T00:39:28Z,42.805,6.029,13.2991,4.60031,2470.11,2020-8-30T02:40:19Z
2020-08-30T00:42:31Z,42.805,6.029,13.2990,4.60019,2470.087,2020-8-30T02:43:22Z
2020-08-30T00:45:35Z,42.805,6.029,13.2993,4.60049,2470.087,2020-8-30T02:46:25Z
2020-08-30T00:48:38Z,42.805,6.029,13.2989,4.60029,2470.063,2020-8-30T02:49:28Z
2020-08-30T00:51:41Z,42.805,6.029,13.2987,4.60005,2470.063,2020-8-30T02:52:32Z
2020-08-30T00:54:44Z,42.805,6.029,13.2989,4.60019,2470.087,2020-8-30T02:55:35Z
2020-08-30T00:57:48Z,42.805,6.029,13.2986,4.60006,2470.087,2020-8-30T02:58:38Z
2020-08-30T01:00:51Z,42.805,6.029,13.2988,4.60014,2470.077,2020-8-30T03:01:41Z
2020-08-30T01:03:54Z,42.805,6.029,13.2993,4.60024,2470.063,2020-8-30T03:04:45Z
2020-08-30T01:06:57Z,42.805,6.029,13.2991,4.60019,2470.087,2020-8-30T03:07:48Z
2020-08-30T01:10:01Z,42.805,6.029,13.2993,4.60030,2470.1,2020-8-30T03:10:51Z
2020-08-30T01:13:04Z,42.805,6.029,13.2984,4.60010,2470.077,2020-8-30T03:13:54Z
2020-08-30T01:16:07Z,42.805,6.029,13.2983,4.60003,2470.087,2020-8-30T03:16:58Z
2020-08-30T01:19:11Z,42.805,6.029,13.2989,4.60003,2470.063,2020-8-30T03:20:01Z
2020-08-30T01:22:14Z,42.805,6.029,13.2983,4.60013,2470.087,2020-8-30T03:23:04Z
2020-08-30T01:25:17Z,42.805,6.029,13.2983,4.60005,2470.1,2020-8-30T03:26:07Z
2020-08-30T01:28:20Z,42.805,6.029,13.2987,4.60003,2470.077,2020-8-30T03:29:11Z
2020-08-30T01:31:24Z,42.805,6.029,13.2986,4.60026,2470.063,2020-8-30T03:32:14Z
2020-08-30T01:34:27Z,42.805,6.029,13.2988,4.60017,2470.087,2020-8-30T03:35:17Z
2020-08-30T01:37:30Z,42.805,6.029,13.3000,4.60029,2470.1,2020-8-30T03:38:20Z
2020-08-30T01:40:33Z,42.805,6.029,13.2983,4.60041,2470.087,2020-8-30T03:41:24Z
2020-08-30T01:43:37Z,42.805,6.029,13.2989,4.60023,2470.11,2020-8-30T03:44:27Z
2020-08-30T01:46:40Z,42.805,6.029,13.2982,4.60015,2470.063,2020-8-30T03:47:30Z
2020-08-30T01:49:43Z,42.805,6.029,13.2984,4.60031,2470.053,2020-8-30T03:50:34Z
2020-08-30T01:52:47Z,42.805,6.029,13.2991,4.60033,2470.063,2020-8-30T03:53:37Z
2020-08-30T01:55:50Z,42.805,6.029,13.2989,4.60019,2470.063,2020-8-30T03:56:40Z
2020-08-30T01:58:53Z,42.805,6.029,13.2989,4.60026,2470.077,2020-8-30T03:59:43Z
2020-08-30T02:01:56Z,42.805,6.029,13.2992,4.60025,2470.1,2020-8-30T04:02:47Z
2020-08-30T02:05:00Z,42.805,6.029,13.2986,4.60024,2470.087,2020-8-30T04:05:50Z
2020-08-30T02:08:03Z,42.805,6.029,13.2986,4.60041,2470.1,2020-8-30T04:08:53Z
2020-08-30T02:11:06Z,42.805,6.029,13.3004,4.60033,2470.1,2020-8-30T04:11:56Z
2020-08-30T02:14:09Z,42.805,6.029,13.2993,4.60027,2470.1,2020-8-30T04:15:00Z
2020-08-30T02:17:13Z,42.805,6.029,13.2984,4.60029,2470.087,2020-8-30T04:18:03Z
2020-08-30T02:20:16Z,42.805,6.029,13.2988,4.60035,2470.1,2020-8-30T04:21:06Z
2020-08-30T02:23:19Z,42.805,6.029,13.2991,4.60016,2470.087,2020-8-30T04:24:09Z
2020-08-30T02:26:22Z,42.805,6.029,13.2991,4.60018,2470.11,2020-8-30T04:27:13Z
2020-08-30T02:29:26Z,42.805,6.029,13.2984,4.60021,2470.11,2020-8-30T04:30:16Z
2020-08-30T02:32:29Z,42.805,6.029,13.2993,4.60019,2470.087,2020-8-30T04:33:19Z
2020-08-30T02:35:32Z,42.805,6.029,13.2991,4.60019,2470.11,2020-8-30T04:36:23Z
2020-08-30T02:38:36Z,42.805,6.029,13.2982,4.60027,2470.133,2020-8-30T04:39:26Z
2020-08-30T02:41:39Z,42.805,6.029,13.2988,4.60019,2470.087,2020-8-30T04:42:29Z
2020-08-30T02:44:42Z,42.805,6.029,13.2986,4.60022,2470.11,2020-8-30T04:45:32Z
2020-08-30T02:47:45Z,42.805,6.029,13.2995,4.60022,2470.1,2020-8-30T04:48:36Z
2020-08-30T02:50:49Z,42.805,6.029,13.2991,4.60007,2470.087,2020-8-30T04:51:39Z
2020-08-30T02:53:52Z,42.805,6.029,13.2989,4.59999,2470.124,2020-8-30T04:54:42Z
2020-08-30T02:56:55Z,42.805,6.029,13.2981,4.60003,2470.11,2020-8-30T04:57:45Z
2020-08-30T02:59:58Z,42.805,6.029,13.2991,4.60009,2470.147,2020-8-30T05:00:49Z
2020-08-30T03:03:01Z,42.805,6.029,13.2989,4.60016,2470.11,2020-8-30T05:03:52Z
2020-08-30T03:06:05Z,42.805,6.029,13.2984,4.60012,2470.1,2020-8-30T05:06:55Z
2020-08-30T03:09:08Z,42.805,6.029,13.2983,4.60010,2470.11,2020-8-30T05:09:58Z
2020-08-30T03:12:11Z,42.805,6.029,13.2981,4.60024,2470.124,2020-8-30T05:13:02Z
2020-08-30T03:15:15Z,42.805,6.029,13.2988,4.60016,2470.133,2020-8-30T05:16:05Z
2020-08-30T03:18:18Z,42.805,6.029,13.2982,4.60029,2470.133,2020-8-30T05:19:08Z
2020-08-30T03:21:21Z,42.805,6.029,13.2982,4.60010,2470.147,2020-8-30T05:22:12Z
2020-08-30T03:24:24Z,42.805,6.029,13.2981,4.60006,2470.133,2020-8-30T05:25:15Z
2020-08-30T03:27:28Z,42.805,6.029,13.2979,4.60024,2470.147,2020-8-30T05:28:18Z
2020-08-30T03:30:31Z,42.805,6.029,13.2986,4.60008,2470.147,2020-8-30T05:31:21Z
2020-08-30T03:33:34Z,42.805,6.029,13.2985,4.60018,2470.124,2020-8-30T05:34:24Z
2020-08-30T03:36:38Z,42.805,6.029,13.2979,4.60015,2470.124,2020-8-30T05:37:28Z
2020-08-30T03:39:41Z,42.805,6.029,13.2981,4.60025,2470.124,2020-8-30T05:40:31Z
2020-08-30T03:42:44Z,42.805,6.029,13.2982,4.60014,2470.133,2020-8-30T05:43:34Z
2020-08-30T03:45:47Z,42.805,6.029,13.2977,4.60002,2470.147,2020-8-30T05:46:38Z
2020-08-30T03:48:51Z,42.805,6.029,13.2979,4.60014,2470.171,2020-8-30T05:49:41Z
2020-08-30T03:51:54Z,42.805,6.029,13.2983,4.60018,2470.133,2020-8-30T05:52:45Z
2020-08-30T03:54:58Z,42.805,6.029,13.2984,4.60021,2470.124,2020-8-30T05:55:48Z
2020-08-30T03:58:01Z,42.805,6.029,13.2980,4.60011,2470.156,2020-8-30T05:58:51Z
2020-08-30T04:01:05Z,42.805,6.029,13.2986,4.60015,2470.156,2020-8-30T06:01:55Z
2020-08-30T04:04:08Z,42.805,6.029,13.2983,4.60011,2470.133,2020-8-30T06:04:59Z
2020-08-30T04:07:12Z,42.805,6.029,13.2991,4.60017,2470.133,2020-8-30T06:08:02Z
2020-08-30T04:10:15Z,42.805,6.029,13.2984,4.60036,2470.133,2020-8-30T06:11:05Z
2020-08-30T04:13:18Z,42.805,6.029,13.2984,4.60019,2470.156,2020-8-30T06:14:09Z
2020-08-30T04:16:22Z,42.805,6.029,13.2993,4.60031,2470.147,2020-8-30T06:17:12Z
2020-08-30T04:19:25Z,42.805,6.029,13.2983,4.60019,2470.18,2020-8-30T06:20:15Z
2020-08-30T04:22:28Z,42.805,6.029,13.2992,4.60013,2470.18,2020-8-30T06:23:18Z
2020-08-30T04:25:31Z,42.805,6.029,13.2982,4.60003,2470.18,2020-8-30T06:26:22Z
2020-08-30T04:28:35Z,42.805,6.029,13.2981,4.60024,2470.156,2020-8-30T06:29:25Z
2020-08-30T04:31:38Z,42.805,6.029,13.2994,4.60016,2470.18,2020-8-30T06:32:28Z
2020-08-30T04:34:41Z,42.805,6.029,13.2980,4.60016,2470.156,2020-8-30T06:35:32Z
2020-08-30T04:37:44Z,42.805,6.029,13.2983,4.60008,2470.194,2020-8-30T06:38:35Z
2020-08-30T04:40:48Z,42.805,6.029,13.2981,4.60015,2470.133,2020-8-30T06:41:38Z
2020-08-30T04:43:51Z,42.805,6.029,13.2980,4.59999,2470.171,2020-8-30T06:44:41Z
2020-08-30T04:46:54Z,42.805,6.029,13.2993,4.60008,2470.156,2020-8-30T06:47:45Z
2020-08-30T04:49:58Z,42.805,6.029,13.2986,4.60010,2470.171,2020-8-30T06:50:48Z
2020-08-30T04:53:01Z,42.805,6.029,13.2977,4.59997,2470.194,2020-8-30T06:53:51Z
2020-08-30T04:56:04Z,42.805,6.029,13.2979,4.60008,2470.171,2020-8-30T06:56:54Z
2020-08-30T04:59:07Z,42.805,6.029,13.2981,4.59992,2470.171,2020-8-30T06:59:58Z
2020-08-30T05:02:11Z,42.805,6.029,13.2980,4.60011,2470.156,2020-8-30T07:03:01Z
2020-08-30T05:05:14Z,42.805,6.029,13.2990,4.60005,2470.156,2020-8-30T07:06:04Z
2020-08-30T05:08:17Z,42.805,6.029,13.2981,4.60020,2470.156,2020-8-30T07:09:08Z
2020-08-30T05:11:21Z,42.805,6.029,13.2984,4.60011,2470.124,2020-8-30T07:12:11Z
2020-08-30T05:14:24Z,42.805,6.029,13.2986,4.60001,2470.171,2020-8-30T07:15:14Z
2020-08-30T05:17:27Z,42.805,6.029,13.2983,4.59996,2470.194,2020-8-30T07:18:18Z
2020-08-30T05:20:30Z,42.805,6.029,13.2987,4.60000,2470.133,2020-8-30T07:21:21Z
2020-08-30T05:23:34Z,42.805,6.029,13.2982,4.60004,2470.171,2020-8-30T07:24:24Z
2020-08-30T05:26:37Z,42.805,6.029,13.2986,4.59994,2470.194,2020-8-30T07:27:27Z
2020-08-30T05:29:40Z,42.805,6.029,13.2984,4.59997,2470.171,2020-8-30T07:30:31Z
2020-08-30T05:32:44Z,42.805,6.029,13.2982,4.60011,2470.203,2020-8-30T07:33:34Z
2020-08-30T05:35:47Z,42.805,6.029,13.2982,4.60009,2470.133,2020-8-30T07:36:37Z
2020-08-30T05:38:50Z,42.805,6.029,13.2983,4.60005,2470.156,2020-8-30T07:39:40Z
2020-08-30T05:41:53Z,42.805,6.029,13.2986,4.60011,2470.156,2020-8-30T07:42:44Z
2020-08-30T05:44:56Z,42.805,6.029,13.2986,4.60003,2470.171,2020-8-30T07:45:47Z
2020-08-30T05:48:00Z,42.805,6.029,13.2979,4.59999,2470.194,2020-8-30T07:48:50Z
2020-08-30T05:51:03Z,42.805,6.029,13.2981,4.60011,2470.133,2020-8-30T07:51:53Z
2020-08-30T05:54:06Z,42.805,6.029,13.2986,4.60005,2470.18,2020-8-30T07:54:57Z
2020-08-30T05:57:10Z,42.805,6.029,13.2984,4.59999,2470.171,2020-8-30T07:58:00Z
2020-08-30T06:00:13Z,42.805,6.029,13.2981,4.59996,2470.156,2020-8-30T08:01:03Z
2020-08-30T06:03:16Z,42.805,6.029,13.2983,4.60011,2470.156,2020-8-30T08:04:07Z
2020-08-30T06:06:19Z,42.805,6.029,13.2983,4.60008,2470.156,2020-8-30T08:07:10Z
2020-08-30T06:09:23Z,42.805,6.029,13.2987,4.60026,2470.194,2020-8-30T08:10:13Z
2020-08-30T06:12:26Z,42.805,6.029,13.2998,4.60029,2470.171,2020-8-30T08:13:16Z
2020-08-30T06:15:29Z,42.805,6.029,13.2990,4.60026,2470.18,2020-8-30T08:16:20Z
2020-08-30T06:18:33Z,42.805,6.029,13.2991,4.60038,2470.133,2020-8-30T08:19:23Z
2020-08-30T06:21:36Z,42.805,6.029,13.2987,4.60008,2470.156,2020-8-30T08:22:26Z
2020-08-30T06:24:39Z,42.805,6.029,13.2993,4.60041,2470.147,2020-8-30T08:25:29Z
2020-08-30T06:27:42Z,42.805,6.029,13.3004,4.60036,2470.171,2020-8-30T08:28:33Z
2020-08-30T06:30:46Z,42.805,6.029,13.2989,4.60029,2470.133,2020-8-30T08:31:36Z
2020-08-30T06:33:49Z,42.805,6.029,13.2985,4.60009,2470.133,2020-8-30T08:34:40Z
2020-08-30T06:36:52Z,42.805,6.029,13.2979,4.60000,2470.156,2020-8-30T08:37:43Z
2020-08-30T06:39:56Z,42.805,6.029,13.2987,4.60008,2470.156,2020-8-30T08:40:46Z
2020-08-30T06:42:59Z,42.805,6.029,13.2986,4.60016,2470.156,2020-8-30T08:43:49Z
2020-08-30T06:46:02Z,42.805,6.029,13.2979,4.60027,2470.133,2020-8-30T08:46:53Z
2020-08-30T06:49:05Z,42.805,6.029,13.2993,4.60032,2470.124,2020-8-30T08:49:56Z
2020-08-30T06:52:09Z,42.805,6.029,13.2985,4.60013,2470.147,2020-8-30T08:52:59Z
2020-08-30T06:55:12Z,42.805,6.029,13.2998,4.60016,2470.124,2020-8-30T08:56:02Z
2020-08-30T06:58:15Z,42.805,6.029,13.2993,4.60016,2470.11,2020-8-30T08:59:06Z
2020-08-30T07:01:19Z,42.805,6.029,13.2985,4.60003,2470.124,2020-8-30T09:02:09Z
2020-08-30T07:04:23Z,42.805,6.029,13.2986,4.60014,2470.11,2020-8-30T09:05:13Z
2020-08-30T07:07:26Z,42.805,6.029,13.2990,4.60023,2470.171,2020-8-30T09:08:16Z
2020-08-30T07:10:29Z,42.805,6.029,13.2985,4.60016,2470.133,2020-8-30T09:11:20Z
2020-08-30T07:13:32Z,42.805,6.029,13.2986,4.60007,2470.147,2020-8-30T09:14:23Z
2020-08-30T07:16:36Z,42.805,6.029,13.2979,4.60021,2470.124,2020-8-30T09:17:26Z
2020-08-30T07:19:39Z,42.805,6.029,13.2984,4.60024,2470.147,2020-8-30T09:20:29Z
2020-08-30T07:22:42Z,42.805,6.029,13.2981,4.60009,2470.11,2020-8-30T09:23:33Z
2020-08-30T07:25:46Z,42.805,6.029,13.2990,4.60021,2470.133,2020-8-30T09:26:36Z
2020-08-30T07:28:49Z,42.805,6.029,13.2980,4.60013,2470.147,2020-8-30T09:29:39Z
2020-08-30T07:31:52Z,42.805,6.029,13.2984,4.60009,2470.11,2020-8-30T09:32:42Z
2020-08-30T07:34:55Z,42.805,6.029,13.2992,4.60003,2470.147,2020-8-30T09:35:46Z
2020-08-30T07:37:59Z,42.805,6.029,13.2998,4.60001,2470.11,2020-8-30T09:38:49Z
2020-08-30T07:41:02Z,42.805,6.029,13.2983,4.60019,2470.133,2020-8-30T09:41:52Z
2020-08-30T07:44:06Z,42.805,6.029,13.2987,4.60016,2470.147,2020-8-30T09:44:56Z
2020-08-30T07:47:09Z,42.805,6.029,13.2976,4.60016,2470.11,2020-8-30T09:47:59Z
2020-08-30T07:50:12Z,42.805,6.029,13.2984,4.60016,2470.156,2020-8-30T09:51:02Z
2020-08-30T07:53:15Z,42.805,6.029,13.2982,4.60003,2470.11,2020-8-30T09:54:06Z
2020-08-30T07:56:19Z,42.805,6.029,13.2983,4.60024,2470.156,2020-8-30T09:57:09Z
2020-08-30T07:59:22Z,42.805,6.029,13.2985,4.59997,2470.147,2020-8-30T10:00:12Z
2020-08-30T08:02:25Z,42.805,6.029,13.2987,4.60005,2470.156,2020-8-30T10:03:15Z
2020-08-30T08:05:28Z,42.805,6.029,13.2983,4.60007,2470.133,2020-8-30T10:06:19Z
2020-08-30T08:08:32Z,42.805,6.029,13.2983,4.60013,2470.156,2020-8-30T10:09:22Z
2020-08-30T08:11:35Z,42.805,6.029,13.2979,4.59999,2470.124,2020-8-30T10:12:25Z
2020-08-30T08:14:38Z,42.805,6.029,13.2985,4.60003,2470.11,2020-8-30T10:15:29Z
2020-08-30T08:17:42Z,42.805,6.029,13.2987,4.60003,2470.11,2020-8-30T10:18:32Z
2020-08-30T08:20:45Z,42.805,6.029,13.2990,4.60009,2470.147,2020-8-30T10:21:35Z
2020-08-30T08:23:48Z,42.805,6.029,13.2984,4.59997,2470.147,2020-8-30T10:24:39Z
2020-08-30T08:26:52Z,42.805,6.029,13.2982,4.60005,2470.133,2020-8-30T10:27:42Z
2020-08-30T08:29:55Z,42.805,6.029,13.2982,4.59997,2470.1,2020-8-30T10:30:45Z
2020-08-30T08:32:58Z,42.805,6.029,13.2992,4.60014,2470.11,2020-8-30T10:33:49Z
2020-08-30T08:36:01Z,42.805,6.029,13.2983,4.60014,2470.11,2020-8-30T10:36:52Z
2020-08-30T08:39:05Z,42.805,6.029,13.2983,4.60001,2470.133,2020-8-30T10:39:55Z
2020-08-30T08:42:08Z,42.805,6.029,13.2981,4.59999,2470.1,2020-8-30T10:42:58Z
2020-08-30T08:45:11Z,42.805,6.029,13.2982,4.59992,2470.124,2020-8-30T10:46:02Z
2020-08-30T08:48:14Z,42.805,6.029,13.2985,4.59992,2470.1,2020-8-30T10:49:05Z
2020-08-30T08:51:18Z,42.805,6.029,13.2982,4.60002,2470.11,2020-8-30T10:52:08Z
2020-08-30T08:54:21Z,42.805,6.029,13.2982,4.60006,2470.11,2020-8-30T10:55:11Z
2020-08-30T08:57:24Z,42.805,6.029,13.2989,4.60006,2470.124,2020-8-30T10:58:15Z
2020-08-30T09:00:28Z,42.805,6.029,13.2979,4.60006,2470.1,2020-8-30T11:01:18Z
2020-08-30T09:03:31Z,42.805,6.029,13.2981,4.59999,2470.063,2020-8-30T11:04:21Z
2020-08-30T09:06:34Z,42.805,6.029,13.2979,4.60003,2470.1,2020-8-30T11:07:25Z
2020-08-30T09:09:37Z,42.805,6.029,13.2983,4.59998,2470.063,2020-8-30T11:10:28Z
2020-08-30T09:12:41Z,42.805,6.029,13.2986,4.60001,2470.087,2020-8-30T11:13:31Z
2020-08-30T09:15:44Z,42.805,6.029,13.2982,4.60009,2470.077,2020-8-30T11:16:34Z
2020-08-30T09:18:47Z,42.805,6.029,13.2982,4.59998,2470.077,2020-8-30T11:19:37Z
2020-08-30T09:21:50Z,42.805,6.029,13.2979,4.60014,2470.063,2020-8-30T11:22:41Z
2020-08-30T09:24:54Z,42.805,6.029,13.2989,4.60003,2470.04,2020-8-30T11:25:44Z
2020-08-30T09:27:57Z,42.805,6.029,13.2983,4.60007,2470.063,2020-8-30T11:28:47Z
2020-08-30T09:31:00Z,42.805,6.029,13.2983,4.59997,2470.026,2020-8-30T11:31:51Z
2020-08-30T09:34:03Z,42.805,6.029,13.2989,4.60004,2470.077,2020-8-30T11:34:54Z
2020-08-30T09:37:07Z,42.805,6.029,13.2992,4.60008,2470.03,2020-8-30T11:37:57Z
2020-08-30T09:40:10Z,42.805,6.029,13.2983,4.60013,2470.063,2020-8-30T11:41:00Z
2020-08-30T09:43:13Z,42.805,6.029,13.2982,4.60006,2470.063,2020-8-30T11:44:03Z
2020-08-30T09:46:16Z,42.805,6.029,13.2979,4.60001,2470.03,2020-8-30T11:47:07Z
2020-08-30T09:49:20Z,42.805,6.029,13.2986,4.60024,2470.04,2020-8-30T11:50:10Z
2020-08-30T09:52:23Z,42.805,6.029,13.2978,4.60003,2470.077,2020-8-30T11:53:13Z
2020-08-30T09:55:26Z,42.805,6.029,13.2988,4.60000,2470.026,2020-8-30T11:56:17Z
2020-08-30T09:58:29Z,42.805,6.029,13.2988,4.60019,2470.1,2020-8-30T11:59:20Z
2020-08-30T10:01:33Z,42.805,6.029,13.2986,4.60006,2470.04,2020-8-30T12:02:23Z
2020-08-30T10:04:36Z,42.805,6.029,13.2987,4.60003,2470.087,2020-8-30T12:05:26Z
2020-08-30T10:07:39Z,42.805,6.029,13.2984,4.60001,2470.063,2020-8-30T12:08:30Z
2020-08-30T10:10:43Z,42.805,6.029,13.2980,4.60017,2470.063,2020-8-30T12:11:33Z
2020-08-30T10:13:46Z,42.805,6.029,13.2989,4.60015,2470.053,2020-8-30T12:14:36Z
2020-08-30T10:16:49Z,42.805,6.029,13.2982,4.60024,2470.087,2020-8-30T12:17:40Z
2020-08-30T10:19:53Z,42.805,6.029,13.2980,4.60006,2470.04,2020-8-30T12:20:43Z
2020-08-30T10:22:56Z,42.805,6.029,13.2987,4.60024,2470.077,2020-8-30T12:23:47Z
2020-08-30T10:25:59Z,42.805,6.029,13.2989,4.60014,2470.077,2020-8-30T12:26:50Z
2020-08-30T10:29:03Z,42.805,6.029,13.2981,4.60004,2470.053,2020-8-30T12:29:53Z
2020-08-30T10:32:06Z,42.805,6.029,13.2979,4.60006,2470.04,2020-8-30T12:32:56Z
2020-08-30T10:35:09Z,42.805,6.029,13.2982,4.60015,2470.077,2020-8-30T12:36:00Z
2020-08-30T10:38:13Z,42.805,6.029,13.2986,4.60005,2470.087,2020-8-30T12:39:03Z
2020-08-30T10:41:16Z,42.805,6.029,13.2981,4.60011,2470.017,2020-8-30T12:42:06Z
2020-08-30T10:44:19Z,42.805,6.029,13.2991,4.60019,2470.04,2020-8-30T12:45:09Z
2020-08-30T10:47:22Z,42.805,6.029,13.2983,4.60001,2470.04,2020-8-30T12:48:13Z
2020-08-30T10:50:26Z,42.805,6.029,13.2983,4.60016,2470.03,2020-8-30T12:51:16Z
2020-08-30T10:53:29Z,42.805,6.029,13.2990,4.60019,2470.04,2020-8-30T12:54:19Z
2020-08-30T10:56:32Z,42.805,6.029,13.2997,4.60016,2470.053,2020-8-30T12:57:23Z
2020-08-30T10:59:35Z,42.805,6.029,13.2985,4.60028,2470.04,2020-8-30T13:00:26Z
2020-08-30T11:02:39Z,42.805,6.029,13.2986,4.60019,2469.993,2020-8-30T13:03:29Z
2020-08-30T11:05:42Z,42.805,6.029,13.2984,4.60031,2470.04,2020-8-30T13:06:32Z
2020-08-30T11:08:45Z,42.805,6.029,13.2979,4.60015,2470.04,2020-8-30T13:09:36Z
2020-08-30T11:11:48Z,42.805,6.029,13.2991,4.60016,2470.017,2020-8-30T13:12:39Z
2020-08-30T11:14:52Z,42.805,6.029,13.2989,4.60020,2470.077,2020-8-30T13:15:42Z
2020-08-30T11:17:55Z,42.805,6.029,13.2994,4.60031,2470.017,2020-8-30T13:18:45Z
2020-08-30T11:20:58Z,42.805,6.029,13.2987,4.60033,2470.017,2020-8-30T13:21:49Z
2020-08-30T11:24:02Z,42.805,6.029,13.2980,4.60028,2470.03,2020-8-30T13:24:52Z
2020-08-30T11:27:05Z,42.805,6.029,13.2998,4.60021,2470.017,2020-8-30T13:27:55Z
2020-08-30T11:30:08Z,42.805,6.029,13.2992,4.60026,2470.077,2020-8-30T13:30:59Z
2020-08-30T11:33:12Z,42.805,6.029,13.2990,4.60025,2470.04,2020-8-30T13:34:02Z
2020-08-30T11:36:15Z,42.805,6.029,13.2991,4.60023,2470.053,2020-8-30T13:37:05Z
2020-08-30T11:39:18Z,42.805,6.029,13.2993,4.60044,2470.017,2020-8-30T13:40:09Z
2020-08-30T11:42:22Z,42.805,6.029,13.2994,4.60024,2470.04,2020-8-30T13:43:12Z
2020-08-30T11:45:25Z,42.805,6.029,13.2987,4.60019,2470.04,2020-8-30T13:46:15Z
2020-08-30T11:48:28Z,42.805,6.029,13.2985,4.60022,2470.063,2020-8-30T13:49:19Z
2020-08-30T11:51:31Z,42.805,6.029,13.2984,4.60024,2469.993,2020-8-30T13:52:22Z
2020-08-30T11:54:35Z,42.805,6.029,13.2983,4.60046,2470.04,2020-8-30T13:55:25Z
2020-08-30T11:57:38Z,42.805,6.029,13.3005,4.60064,2470.017,2020-8-30T13:58:28Z
2020-08-30T12:00:41Z,42.805,6.029,13.3002,4.60011,2470.03,2020-8-30T14:01:32Z
2020-08-30T12:03:45Z,42.805,6.029,13.2986,4.60049,2470.04,2020-8-30T14:04:35Z
2020-08-30T12:06:48Z,42.805,6.029,13.2982,4.60036,2470.04,2020-8-30T14:07:38Z
2020-08-30T12:09:51Z,42.805,6.029,13.2991,4.60037,2470.017,2020-8-30T14:10:41Z
2020-08-30T12:12:54Z,42.805,6.029,13.2987,4.60039,2470.063,2020-8-30T14:13:45Z
2020-08-30T12:15:58Z,42.805,6.029,13.2986,4.60026,2470.026,2020-8-30T14:16:48Z
2020-08-30T12:19:01Z,42.805,6.029,13.2992,4.60044,2470.04,2020-8-30T14:19:51Z
2020-08-30T12:22:04Z,42.805,6.029,13.2993,4.60020,2470.053,2020-8-30T14:22:55Z
2020-08-30T12:25:07Z,42.805,6.029,13.2986,4.60011,2470.017,2020-8-30T14:25:58Z
2020-08-30T12:28:11Z,42.805,6.029,13.2987,4.60015,2470.007,2020-8-30T14:29:01Z
2020-08-30T12:31:14Z,42.805,6.029,13.3012,4.60028,2470.063,2020-8-30T14:32:04Z
2020-08-30T12:34:17Z,42.805,6.029,13.3000,4.60041,2470.053,2020-8-30T14:35:08Z
2020-08-30T12:37:20Z,42.805,6.029,13.2998,4.60055,2470.017,2020-8-30T14:38:11Z
2020-08-30T12:40:24Z,42.805,6.029,13.3016,4.60049,2470.03,2020-8-30T14:41:14Z
2020-08-30T12:43:27Z,42.805,6.029,13.3002,4.60029,2470.053,2020-8-30T14:44:17Z
2020-08-30T12:46:30Z,42.805,6.029,13.3002,4.60020,2470.04,2020-8-30T14:47:21Z
2020-08-30T12:49:34Z,42.805,6.029,13.2998,4.60055,2470.04,2020-8-30T14:50:24Z
2020-08-30T12:52:37Z,42.805,6.029,13.2995,4.60049,2470.04,2020-8-30T14:53:27Z
2020-08-30T12:55:40Z,42.805,6.029,13.3006,4.60019,2470.053,2020-8-30T14:56:30Z
2020-08-30T12:58:43Z,42.805,6.029,13.2996,4.60041,2470.017,2020-8-30T14:59:34Z
2020-08-30T13:01:47Z,42.805,6.029,13.3000,4.60049,2470.04,2020-8-30T15:02:37Z
2020-08-30T13:04:50Z,42.805,6.029,13.2996,4.60029,2470.063,2020-8-30T15:05:40Z
2020-08-30T13:07:53Z,42.805,6.029,13.2993,4.60029,2470.04,2020-8-30T15:08:43Z
2020-08-30T13:10:56Z,42.805,6.029,13.3001,4.60027,2470.053,2020-8-30T15:11:47Z
2020-08-30T13:14:00Z,42.805,6.029,13.2993,4.60038,2470.063,2020-8-30T15:14:50Z
2020-08-30T13:17:03Z,42.805,6.029,13.2991,4.59996,2470.053,2020-8-30T15:17:53Z
2020-08-30T13:20:06Z,42.805,6.029,13.2990,4.59998,2470.03,2020-8-30T15:20:57Z
2020-08-30T13:23:10Z,42.805,6.029,13.2993,4.59992,2470.053,2020-8-30T15:24:00Z
2020-08-30T13:26:13Z,42.805,6.029,13.2991,4.59996,2470.077,2020-8-30T15:27:03Z
2020-08-30T13:29:16Z,42.805,6.029,13.3019,4.60001,2470.063,2020-8-30T15:30:06Z
2020-08-30T13:32:19Z,42.805,6.029,13.3000,4.59998,2470.063,2020-8-30T15:33:10Z
2020-08-30T13:35:22Z,42.805,6.029,13.2993,4.59996,2470.077,2020-8-30T15:36:13Z
2020-08-30T13:38:26Z,42.805,6.029,13.2996,4.59989,2470.077,2020-8-30T15:39:16Z
2020-08-30T13:41:29Z,42.805,6.029,13.2990,4.60024,2470.04,2020-8-30T15:42:19Z
2020-08-30T13:44:32Z,42.805,6.029,13.2991,4.60024,2470.063,2020-8-30T15:45:23Z
2020-08-30T13:47:36Z,42.805,6.029,13.2982,4.60001,2470.147,2020-8-30T15:48:26Z
2020-08-30T13:50:39Z,42.805,6.029,13.3000,4.59999,2470.053,2020-8-30T15:51:30Z
2020-08-30T13:53:42Z,42.805,6.029,13.2986,4.60019,2470.063,2020-8-30T15:54:33Z
2020-08-30T13:56:46Z,42.805,6.029,13.2990,4.60000,2470.087,2020-8-30T15:57:36Z
2020-08-30T13:59:49Z,42.805,6.029,13.2995,4.59992,2470.087,2020-8-30T16:00:39Z
2020-08-30T14:02:52Z,42.805,6.029,13.2993,4.59988,2470.124,2020-8-30T16:03:42Z
2020-08-30T14:05:55Z,42.805,6.029,13.2993,4.59995,2470.077,2020-8-30T16:06:46Z
2020-08-30T14:08:58Z,42.805,6.029,13.2998,4.60035,2470.1,2020-8-30T16:09:49Z
2020-08-30T14:12:02Z,42.805,6.029,13.2999,4.60009,2470.063,2020-8-30T16:12:52Z
2020-08-30T14:15:05Z,42.805,6.029,13.2994,4.60028,2470.11,2020-8-30T16:15:55Z
2020-08-30T14:18:08Z,42.805,6.029,13.3011,4.60019,2470.1,2020-8-30T16:18:59Z
2020-08-30T14:21:12Z,42.805,6.029,13.3000,4.59994,2470.124,2020-8-30T16:22:02Z
2020-08-30T14:24:15Z,42.805,6.029,13.2996,4.60003,2470.11,2020-8-30T16:25:05Z
2020-08-30T14:27:18Z,42.805,6.029,13.3000,4.60003,2470.077,2020-8-30T16:28:08Z
2020-08-30T14:30:21Z,42.805,6.029,13.2994,4.60002,2470.11,2020-8-30T16:31:12Z
2020-08-30T14:33:25Z,42.805,6.029,13.2997,4.60014,2470.087,2020-8-30T16:34:15Z
2020-08-30T14:36:28Z,42.805,6.029,13.2998,4.60004,2470.124,2020-8-30T16:37:18Z
2020-08-30T14:39:31Z,42.805,6.029,13.3006,4.60006,2470.124,2020-8-30T16:40:21Z
2020-08-30T14:42:34Z,42.805,6.029,13.2996,4.60019,2470.11,2020-8-30T16:43:25Z
2020-08-30T14:45:38Z,42.805,6.029,13.2998,4.59986,2470.147,2020-8-30T16:46:28Z
2020-08-30T14:48:41Z,42.805,6.029,13.2996,4.60012,2470.124,2020-8-30T16:49:31Z
2020-08-30T14:51:44Z,42.805,6.029,13.3003,4.60010,2470.11,2020-8-30T16:52:35Z
2020-08-30T14:54:48Z,42.805,6.029,13.2993,4.60016,2470.124,2020-8-30T16:55:38Z
2020-08-30T14:57:51Z,42.805,6.029,13.3003,4.59994,2470.147,2020-8-30T16:58:42Z
2020-08-30T15:00:55Z,42.805,6.029,13.2998,4.59994,2470.133,2020-8-30T17:01:45Z
2020-08-30T15:03:58Z,42.805,6.029,13.3001,4.60002,2470.124,2020-8-30T17:04:48Z
2020-08-30T15:07:01Z,42.805,6.029,13.2993,4.60006,2470.133,2020-8-30T17:07:52Z
2020-08-30T15:10:05Z,42.805,6.029,13.2998,4.59999,2470.147,2020-8-30T17:10:55Z
2020-08-30T15:13:08Z,42.805,6.029,13.2990,4.60003,2470.194,2020-8-30T17:13:59Z
2020-08-30T15:16:11Z,42.805,6.029,13.2990,4.59998,2470.194,2020-8-30T17:17:02Z